CZ-3B DEB, 40843

Orbit data source: Space-Track

CZ-3B DEB, 40843 is space debris in HEO originally from a launch on Mon, 19 Dec 2011 UTC launched from the Xichang Space Center, China (XSC). Debris objects in space refer to the collection of defunct objects orbiting the Earth. Examples of debris include non-operational satellites, rocket bodies, and fragments generated from explosions, collisions, or faulty payload assembly.

Loading next visibility...
Identifier
40843, 2011-077Y
Orbit
HEO
Last TLE update
2 days ago
Origin
Manufacturer
CALT
Mission
Spacecraft
Bus & Motor
Unknown
Mass
Unknown
Launch date (UTC)
2011-12-19 (14 years ago)
Launch vehicle
Unknown
Launch site
Xichang Space Center, China (XSC)
Object type
Payload
Rocket body
Debris
Shape & HBR
Unknown
Radar Cross Section
Medium (>0.1 m² and <1 m²)

Expand to show TLE details & history

TLE from 2 days ago
0 CZ-3B DEB
1 40843U 11077Y   25180.54292553  .00000529  00000-0  38492-2 0  9990
2 40843  22.2435 255.8737 7280756 340.8682   2.2696  2.17133369 86567
Epoch: 2025-06-29T13:01Z
TLE epoch observation values (Epoch: 2025-06-29T13:01:48.765Z)
Latitude
-0.00002°
Longitude
142.59114°
Altitude
630.438 km
Speed
9.895 km/s
True Right ascension
17h 03m 38s
True Declination
0° 00' 00"
Sunlit
Object was in full shadow at epoch
Visualization orbit readout
Latitude
10.97895°
Longitude
-66.25648°
Altitude
34,721.462 km
Speed
1.891 km/s
Apparent Right ascension
02h 59m 09s
Apparent Declination
4° 46' 03"
Sunlit
Object is in daylight
Visualization observer readout
Local Sidereal Time
13:42:56
Azimuth
334.036° NNW
Elevation
-41.999°
Doppler factor
1
Orbital elements
Apogee altitude
37,161.746 km
Perigee altitude
473.158 km
Semi-major axis
25,195.589 km
Eccentricity
0.72808
Inclination
22.2435°
RAAN
255.8737°
Arg. of periapsis
340.8682°
True anomaly
Unknown
Mean anomaly
2.2696°
Eccentric anomaly
Unknown
Mean motion
0.5427 °/min
Orbital period
663.36 mins
BSTAR
0.0038492
Loading maneuver chart data...
Loading SW <> Apogee altitude chart data...
Loading historical data...
Loading historical data...
Loading historical data...
Loading historical data...
Loading historical data...
Loading historical data...
Loading historical data...

CZ-3B DEB Visibility forecast

Observer location: undefined°, undefined°

Span
Click to sort rows by Start time (UTC) header in descending order
Start Az.
Max El. time (UTC)
Max El. Az.
Max El.
End time (UTC)
End Az.
601 mins2025-07-01 09:24:51.647Z221.104° SW2025-07-01 09:40:51.647Z148.355° SSE37.696°2025-07-01 19:25:51.647Z163.775° S
|